Lid_Strength_Index
7 10 12 10 9 9 10 11 12 9 7 9 10 10 9 6 6 6 6 5 5 5 4 4 3 2 2 2 2 2 2 1 1 1 2 2 2 1 0 -0 -0 -0 -1 -1
9 12 8 8 9 10 11 13 12 10 8 9 10 10 8 7 7 7 6 6 6 5 5 4 3 3 3 2 2 2 2 1 1 1 1 1 1 1 0 -0 -0 -1 -1 -1
11 10 8 10 11 12 12 13 12 12 10 9 11 12 10 7 7 6 6 5 5 5 5 5 4 3 3 3 2 2 2 1 1 1 1 1 1 1 1 1 0 -0 -1 -1
10 8 10 11 12 11 15 10 12 13 14 17 10 18 12 9 9 8 7 6 6 5 5 5 4 4 3 3 2 2 1 1 1 1 1 2 2 3 2 1 0 0 -0 -0
11 10 11 12 11 10 13 10 12 13 15 15 14 17 14 9 12 10 8 7 6 5 5 5 4 3 3 2 2 2 1 1 1 1 1 2 2 2 1 1 1 0 -0 -0
10 8 9 9 9 9 9 12 12 13 15 19 15 16 17 15 13 10 8 7 6 6 5 5 3 3 3 2 2 2 2 2 1 1 1 1 2 2 2 2 2 1 0 0
11 11 8 8 12 9 11 14 19 20 20 19 15 17 16 12 10 9 9 8 7 6 5 5 4 4 4 3 3 3 3 3 2 2 1 2 2 2 2 2 2 2 1 1
15 17 11 9 12 13 13 14 19 23 22 19 13 18 16 10 8 8 7 7 6 6 7 6 4 4 4 3 3 3 3 3 2 2 2 2 2 2 1 1 1 1 1 1
15 15 9 9 9 10 13 15 12 17 16 18 17 15 11 10 9 9 9 8 7 7 7 6 4 4 4 3 3 3 2 2 2 2 2 2 2 1 2 1 1 1 1 0
12 16 10 10 9 9 12 10 16 16 21 22 19 17 17 13 12 10 10 9 8 8 8 7 5 4 3 3 3 2 2 2 2 2 2 2 2 2 1 2 2 1 1 1
10 12 14 11 13 14 13 14 13 13 14 20 20 19 12 12 11 10 10 9 9 9 8 8 6 4 3 3 3 3 2 2 2 2 2 2 2 2 2 2 2 1 1 1
9 11 16 14 10 9 10 12 12 17 17 15 15 18 9 9 10 10 10 9 9 9 9 8 6 4 4 3 3 3 2 2 2 2 1 1 2 2 2 2 1 1 1 1
9 12 17 15 11 9 12 11 11 11 13 16 18 17 9 9 9 9 10 9 10 9 8 8 7 6 4 4 3 3 3 3 2 2 2 2 2 1 2 2 2 2 2 2
8 11 14 17 15 12 14 11 11 13 16 16 16 14 11 10 10 9 9 9 8 9 9 8 7 7 7 5 4 5 4 3 2 3 3 3 2 3 3 3 3 3 3 3
8 14 12 11 11 11 12 12 11 13 12 16 13 13 11 9 9 9 9 9 9 9 9 9 8 8 7 6 5 5 5 4 3 3 3 3 4 4 4 5 4 4 4 5
8 13 11 13 10 11 13 11 11 11 11 11 11 12 8 8 7 8 8 8 10 10 9 8 8 7 7 7 6 5 5 5 4 4 5 5 5 5 5 6 6 6 7 7
10 11 13 15 11 11 14 12 12 11 10 10 13 10 7 8 8 8 8 8 8 8 8 8 8 7 6 6 6 6 6 5 5 6 6 6 6 6 7 7 7 7 7 7
10 11 11 13 12 18 12 8 9 10 10 8 9 8 7 7 7 7 7 7 8 7 7 6 6 5 6 5 6 6 6 6 6 6 6 6 6 7 7 7 8 8 8 8
8 10 12 14 15 13 11 10 11 12 12 8 8 7 7 7 6 7 6 6 6 6 5 6 5 4 4 5 5 5 5 5 6 6 7 6 7 8 7 8 8 8 8 8
9 9 11 12 16 17 11 8 7 7 15 7 7 7 7 6 10 9 6 6 6 5 5 5 4 4 4 4 3 4 4 4 6 6 6 6 6 6 7 7 8 7 8 8
12 12 13 13 14 12 9 8 7 14 14 7 6 6 7 8 7 6 5 6 5 5 5 4 4 5 4 3 3 4 4 5 4 4 5 5 5 6 6 7 8 8 8 8
13 14 14 13 14 16 9 9 11 8 6 6 6 6 6 6 6 5 6 6 6 6 6 5 5 6 6 5 4 5 6 4 4 4 5 5 5 6 6 7 7 7 7 8
13 12 12 12 13 10 8 8 7 7 7 6 6 6 6 6 6 5 6 6 6 6 6 6 6 7 7 7 7 8 8 6 5 5 5 5 5 6 6 6 7 7 6 6
11 10 11 12 10 9 8 7 7 6 6 6 6 6 6 6 6 6 7 6 6 6 6 6 6 7 7 8 8 9 8 6 7 7 7 7 6 6 6 6 6 6 6 6
11 11 11 11 10 9 8 7 7 7 6 6 6 6 6 6 6 6 6 7 7 7 7 6 6 6 7 7 7 7 7 7 8 8 8 8 8 8 8 8 8 7 7 7
11 11 12 12 9 9 9 8 7 7 7 7 7 6 6 5 6 5 6 6 7 7 7 7 7 7 7 7 7 7 7 7 7 7 7 8 8 8 9 9 9 8 8 8